TimeIST,TemperatureF,Dew PointF,Humidity,Sea Level PressureIn,VisibilityMPH,Wind Direction,Wind SpeedMPH,Gust SpeedMPH,PrecipitationIn,Events,Conditions,WindDirDegrees,DateUTC
12:00 AM,77.0,71.6,83,29.80,2.2,Calm,Calm,-,N/A,,Mist,0,2012-09-30 18:30:00
1:30 AM,77.0,71.6,83,29.80,2.2,Calm,Calm,-,N/A,,Mist,0,2012-09-30 20:00:00
2:30 AM,76,71,78,29.76,1,Calm,Calm,,,,Mist,,2012-09-30 21:00:00
3:00 AM,75.2,71.6,89,29.77,1.6,Calm,Calm,-,N/A,,Mist,0,2012-09-30 21:30:00
4:00 AM,75.2,71.6,89,29.77,1.6,Calm,Calm,-,N/A,,Mist,0,2012-09-30 22:30:00
4:30 AM,75.2,71.6,89,29.77,1.6,Calm,Calm,-,N/A,,Mist,0,2012-09-30 23:00:00
5:30 AM,73.4,73.4,100,29.80,1.6,Calm,Calm,-,N/A,,Mist,0,2012-10-01 00:00:00
6:00 AM,71.6,71.6,100,29.80,1.6,Calm,Calm,-,N/A,,Mist,0,2012-10-01 00:30:00
6:30 AM,71.6,71.6,100,29.80,0.9,Calm,Calm,-,N/A,,Mist,0,2012-10-01 01:00:00
7:00 AM,71.6,71.6,100,29.80,0.9,Calm,Calm,-,N/A,,Mist,0,2012-10-01 01:30:00
7:30 AM,71.6,71.6,100,29.83,0.9,Calm,Calm,-,N/A,,Mist,0,2012-10-01 02:00:00
8:30 AM,76,73,88,29.83,1,Calm,Calm,,,,Mist,,2012-10-01 03:00:00
9:00 AM,78.8,73.4,83,29.86,1.9,Calm,Calm,-,N/A,,Mist,0,2012-10-01 03:30:00
9:30 AM,80.6,71.6,74,29.86,2.5,West,3.5,-,N/A,,Mist,270,2012-10-01 04:00:00
10:00 AM,84.2,69.8,62,29.89,2.8,Calm,Calm,-,N/A,,Haze,0,2012-10-01 04:30:00
10:30 AM,86.0,69.8,58,29.89,3.1,Calm,Calm,-,N/A,,Haze,0,2012-10-01 05:00:00
11:30 AM,87,69,45,29.84,2,SSE,5.8,,,,Haze,160,2012-10-01 06:00:00
12:00 PM,89.6,69.8,52,29.86,3.7,ESE,4.6,-,N/A,,Unknown,110,2012-10-01 06:30:00
2:30 PM,91,70,41,29.76,2,South,4.6,,,,Clear,180,2012-10-01 09:00:00
2:30 PM,91.4,69.8,49,29.80,3.7,South,4.6,-,N/A,,Partly Cloudy,180,2012-10-01 09:00:00
3:30 PM,89.6,69.8,52,29.77,3.7,South,4.6,-,N/A,,Unknown,190,2012-10-01 10:00:00
4:00 PM,89.6,69.8,52,29.77,3.7,South,4.6,-,N/A,,Unknown,180,2012-10-01 10:30:00
4:30 PM,89.6,69.8,52,29.77,3.7,West,4.6,-,N/A,,Unknown,270,2012-10-01 11:00:00
5:00 PM,87.8,69.8,55,29.77,3.7,West,5.8,-,N/A,,Unknown,260,2012-10-01 11:30:00
5:30 PM,87,69,46,29.74,2,West,5.8,,,,,270,2012-10-01 12:00:00
6:00 PM,86.0,69.8,58,0.00,3.7,West,4.6,-,N/A,,Unknown,280,2012-10-01 12:30:00
7:30 PM,82.4,69.8,66,29.77,3.7,West,3.5,-,N/A,,Unknown,270,2012-10-01 14:00:00
8:30 PM,79,71,69,29.76,1,Calm,Calm,,,,Haze,,2012-10-01 15:00:00
9:30 PM,78.8,69.8,74,29.80,-9999.0,North,-9999.0,-,N/A,,Mist,0,2012-10-01 16:00:00